• In Belarus
  • List of Countries
  • For 7 days
  • Water Temperature
  • Satellite Maps
  • Weather Map
  • Weather Widgets
  • user-avatar
    Login

    Hourly Weather Iraklion

    Today, 16 December, Sunday

    Time Temperature Precipitation Wind Pressure Humidity
    00:00 +16°C° 0.3 mm 7 mps 753 mmHg 75%
    01:00 +16°C° 0.3 mm 7 mps 753 mmHg 75%
    02:00 +16°C° 0 mm 9 mps 752 mmHg 75%
    03:00 +15°C° 0.2 mm 8 mps 752 mmHg 77%
    04:00 +14°C° 0.2 mm 7 mps 751 mmHg 78%
    05:00 +14°C° 0.2 mm 6 mps 751 mmHg 80%
    06:00 +13°C° 0 mm 5 mps 751 mmHg 80%
    07:00 +13°C° 0 mm 5 mps 751 mmHg 81%
    08:00 +13°C° 0 mm 4 mps 751 mmHg 82%
    09:00 +14°C° 0.1 mm 4 mps 751 mmHg 79%
    10:00 +15°C° 0.1 mm 4 mps 751 mmHg 75%
    11:00 +15°C° 0.1 mm 4 mps 751 mmHg 71%
    12:00 +17°C° 0 mm 4 mps 751 mmHg 69%
    13:00 +17°C° 0 mm 4 mps 751 mmHg 66%
    14:00 +17°C° 0 mm 4 mps 751 mmHg 64%
    15:00 +17°C° 0 mm 4 mps 751 mmHg 66%
    16:00 +15°C° 0 mm 4 mps 751 mmHg 68%
    17:00 +15°C° 0 mm 4 mps 751 mmHg 70%
    18:00 +15°C° 0 mm 4 mps 751 mmHg 71%
    19:00 +14°C° 0 mm 4 mps 752 mmHg 72%
    20:00 +14°C° 0 mm 5 mps 752 mmHg 74%
    21:00 +14°C° 0 mm 5 mps 752 mmHg 74%
    22:00 +14°C° 0 mm 5 mps 753 mmHg 75%
    23:00 +14°C° 0 mm 5 mps 753 mmHg 76%

    Tomorrow, 17 December, Monday

    Time Temperature Precipitation Wind Pressure Humidity
    00:00 +13°C° 0 mm 5 mps 753 mmHg 77%
    01:00 +13°C° 0 mm 5 mps 753 mmHg 78%
    02:00 +13°C° 0 mm 5 mps 754 mmHg 79%
    03:00 +13°C° 0 mm 5 mps 754 mmHg 79%
    04:00 +13°C° 0 mm 5 mps 754 mmHg 79%
    05:00 +12°C° 0 mm 5 mps 754 mmHg 80%
    06:00 +13°C° 0 mm 5 mps 754 mmHg 79%
    07:00 +13°C° 0 mm 4 mps 754 mmHg 79%
    08:00 +13°C° 0 mm 4 mps 755 mmHg 79%
    09:00 +14°C° 0 mm 4 mps 755 mmHg 73%
    10:00 +15°C° 0 mm 4 mps 755 mmHg 68%
    11:00 +18°C° 0 mm 4 mps 756 mmHg 62%
    12:00 +18°C° 0 mm 4 mps 756 mmHg 62%
    13:00 +18°C° 0 mm 4 mps 755 mmHg 61%
    14:00 +17°C° 0 mm 5 mps 755 mmHg 60%
    15:00 +17°C° 0 mm 5 mps 755 mmHg 63%
    16:00 +16°C° 0 mm 5 mps 755 mmHg 66%
    17:00 +15°C° 0 mm 5 mps 755 mmHg 68%
    18:00 +15°C° 0 mm 5 mps 755 mmHg 72%
    19:00 +15°C° 0 mm 4 mps 755 mmHg 75%
    20:00 +14°C° 0 mm 4 mps 756 mmHg 78%
    21:00 +14°C° 0 mm 4 mps 755 mmHg 80%
    22:00 +14°C° 0 mm 4 mps 755 mmHg 82%
    23:00 +14°C° 0 mm 4 mps 755 mmHg 84%

    Day after tomorrow, 18 December, Tuesday

    Time Temperature Precipitation Wind Pressure Humidity
    00:00 +14°C° 0.1 mm 5 mps 755 mmHg 85%
    01:00 +14°C° 0.1 mm 5 mps 755 mmHg 87%
    02:00 +15°C° 0.1 mm 6 mps 754 mmHg 88%
    03:00 +15°C° 0.5 mm 7 mps 754 mmHg 86%
    04:00 +15°C° 0.5 mm 7 mps 753 mmHg 85%
    05:00 +15°C° 0.5 mm 8 mps 752 mmHg 83%
    06:00 +13°C° 0.1 mm 8 mps 753 mmHg 81%
    07:00 +13°C° 0.1 mm 9 mps 753 mmHg 78%
    08:00 +13°C° 0.1 mm 9 mps 753 mmHg 75%
    09:00 +13°C° 0 mm 9 mps 753 mmHg 70%
    10:00 +15°C° 0 mm 9 mps 753 mmHg 64%
    11:00 +16°C° 0 mm 9 mps 753 mmHg 59%
    12:00 +16°C° 0.1 mm 8 mps 753 mmHg 59%
    13:00 +16°C° 0.1 mm 8 mps 753 mmHg 60%
    14:00 +16°C° 0.1 mm 8 mps 752 mmHg 60%
    15:00 +16°C° 0.2 mm 8 mps 753 mmHg 63%
    16:00 +15°C° 0.2 mm 7 mps 753 mmHg 66%
    17:00 +14°C° 0.2 mm 7 mps 753 mmHg 69%
    18:00 +14°C° 0.1 mm 7 mps 753 mmHg 70%
    19:00 +14°C° 0.1 mm 7 mps 753 mmHg 70%
    20:00 +12°C° 0.1 mm 7 mps 754 mmHg 71%
    21:00 +12°C° 0.3 mm 7 mps 754 mmHg 72%
    22:00 +12°C° 0.3 mm 8 mps 754 mmHg 73%
    23:00 +12°C° 0.3 mm 8 mps 754 mmHg 74%

    19 December, Wednesday

    Time Temperature Precipitation Wind Pressure Humidity
    00:00 +12°C° 0.7 mm 9 mps 755 mmHg 74%
    01:00 +12°C° 0.7 mm 9 mps 755 mmHg 75%
    02:00 +12°C° 0.7 mm 10 mps 755 mmHg 76%
    03:00 +12°C° 0.4 mm 10 mps 755 mmHg 75%
    04:00 +12°C° 0.4 mm 11 mps 756 mmHg 74%
    05:00 +12°C° 0.4 mm 11 mps 756 mmHg 73%
    06:00 +12°C° 0.2 mm 10 mps 756 mmHg 73%
    07:00 +12°C° 0.2 mm 10 mps 757 mmHg 73%
    08:00 +12°C° 0.2 mm 10 mps 757 mmHg 73%
    09:00 +12°C° 0.1 mm 10 mps 758 mmHg 72%
    10:00 +12°C° 0.1 mm 9 mps 759 mmHg 71%
    11:00 +12°C° 0.1 mm 9 mps 759 mmHg 70%
    12:00 +13°C° 0.1 mm 9 mps 759 mmHg 69%
    13:00 +13°C° 0.1 mm 8 mps 759 mmHg 68%
    14:00 +13°C° 0.1 mm 8 mps 759 mmHg 67%
    15:00 +13°C° 0 mm 8 mps 759 mmHg 68%
    16:00 +12°C° 0 mm 8 mps 760 mmHg 69%
    17:00 +12°C° 0 mm 7 mps 760 mmHg 70%
    18:00 +12°C° 0 mm 7 mps 760 mmHg 71%
    19:00 +11°C° 0 mm 6 mps 761 mmHg 72%
    20:00 +11°C° 0 mm 6 mps 761 mmHg 72%
    21:00 +12°C° 0 mm 5 mps 761 mmHg 73%
    22:00 +10°C° 0 mm 5 mps 762 mmHg 75%
    23:00 +10°C° 0 mm 5 mps 762 mmHg 76%

    20 December, Thursday

    Time Temperature Precipitation Wind Pressure Humidity
    00:00 +11°C° 0 mm 4 mps 762 mmHg 77%
    01:00 +11°C° 0 mm 4 mps 762 mmHg 78%
    02:00 +11°C° 0 mm 4 mps 762 mmHg 80%
    03:00 +11°C° 0 mm 4 mps 762 mmHg 81%
    04:00 +11°C° 0 mm 4 mps 761 mmHg 82%
    05:00 +11°C° 0 mm 4 mps 761 mmHg 83%
    06:00 +11°C° 0 mm 3 mps 762 mmHg 82%
    07:00 +11°C° 0 mm 3 mps 762 mmHg 82%
    08:00 +11°C° 0 mm 3 mps 762 mmHg 82%
    09:00 +12°C° 0 mm 3 mps 762 mmHg 74%
    10:00 +15°C° 0 mm 2 mps 763 mmHg 67%
    11:00 +16°C° 0 mm 2 mps 763 mmHg 59%
    12:00 +16°C° 0 mm 2 mps 763 mmHg 57%
    13:00 +17°C° 0 mm 2 mps 762 mmHg 54%
    14:00 +17°C° 0 mm 2 mps 762 mmHg 52%
    15:00 +17°C° 0 mm 2 mps 762 mmHg 56%
    16:00 +16°C° 0 mm 2 mps 762 mmHg 61%
    17:00 +15°C° 0 mm 2 mps 762 mmHg 65%
    18:00 +15°C° 0 mm 2 mps 762 mmHg 69%
    19:00 +14°C° 0 mm 2 mps 762 mmHg 72%
    20:00 +14°C° 0 mm 2 mps 763 mmHg 76%
    21:00 +13°C° 0 mm 2 mps 763 mmHg 77%
    22:00 +13°C° 0 mm 2 mps 763 mmHg 79%
    23:00 +13°C° 0 mm 2 mps 763 mmHg 80%

    21 December, Friday

    Time Temperature Precipitation Wind Pressure Humidity
    00:00 +13°C° 0 mm 2 mps 762 mmHg 81%
    01:00 +11°C° 0 mm 3 mps 762 mmHg 82%
    02:00 +11°C° 0 mm 3 mps 762 mmHg 83%
    03:00 +11°C° 0 mm 3 mps 762 mmHg 83%
    04:00 +11°C° 0 mm 4 mps 762 mmHg 83%
    05:00 +11°C° 0 mm 4 mps 762 mmHg 83%
    06:00 +11°C° 0 mm 4 mps 762 mmHg 83%
    07:00 +11°C° 0 mm 4 mps 762 mmHg 82%
    08:00 +12°C° 0 mm 4 mps 762 mmHg 82%
    09:00 +13°C° 0 mm 4 mps 762 mmHg 75%
    10:00 +14°C° 0 mm 4 mps 762 mmHg 68%
    11:00 +16°C° 0 mm 3 mps 762 mmHg 61%
    12:00 +17°C° 0 mm 4 mps 762 mmHg 60%
    13:00 +17°C° 0 mm 4 mps 762 mmHg 59%
    14:00 +16°C° 0 mm 5 mps 761 mmHg 59%
    15:00 +16°C° 0 mm 5 mps 761 mmHg 61%
    16:00 +16°C° 0 mm 5 mps 761 mmHg 63%
    17:00 +15°C° 0 mm 5 mps 761 mmHg 66%
    18:00 +15°C° 0 mm 4 mps 761 mmHg 69%
    19:00 +14°C° 0 mm 4 mps 761 mmHg 73%
    20:00 +13°C° 0 mm 4 mps 761 mmHg 76%
    21:00 +13°C° 0.1 mm 4 mps 761 mmHg 77%
    22:00 +13°C° 0.1 mm 4 mps 761 mmHg 77%
    23:00 +13°C° 0.1 mm 4 mps 762 mmHg 78%
    Show more